Regional Weather Roundup
Issued by NWS

Home | Current Version | Previous Version | Graphics & Text | Print | Product List | Glossary On
Versions: 1 2 3 4 5 6 7 8 9 10 11 12 13 14 15 16 17 18 19 20 21 22 23 24 25 26 27 28 29 30 31 32 33 34 35 36 37 38 39 40 41 42 43 44 45 46 47 48 49 50
551
ASUS43 KLOT 272109
RWRIL

ILLINOIS REGIONAL WEATHER ROUNDUP
NATIONAL WEATHER SERVICE CHICAGO/ROMEOVILLE IL
400 PM CDT THU JUL 27 2017

NOTE: "FAIR" INDICATES FEW OR NO CLOUDS BELOW 12,000 FEET WITH NO
SIGNIFICANT WEATHER AND/OR OBSTRUCTIONS TO VISIBILITY.

* THESE STATIONS ARE NOT UNDER NWS QUALITY CONTROL. THEY ALSO MAY NOT
  REPORT WEATHER SUCH AS PRECIPITATION OR FOG.

ILZ001-002-007-009-015-016-024-272200-
NORTHWEST ILLINOIS

CITY           SKY/WX    TMP DP  RH WIND       PRES   REMARKS
MOLINE         PTSUNNY   83  69  62 NE10G20   29.93F HX  86
STERLING*      MOSUNNY   83  72  69 NE12      29.95S HX  88
SAVANNA*       MOSUNNY   84  66  54 NE10G17   29.95F HX  86
$$

ILZ003-004-008-010-011-017-018-272200-
NORTH CENTRAL ILLINOIS

CITY           SKY/WX    TMP DP  RH WIND       PRES   REMARKS
ROCKFORD       MOSUNNY   85  60  42 NE17      29.97S HX  85
FREEPORT*      SUNNY     81  64  56 NE10      29.99S HX  83
ROCHELLE*      SUNNY     81  64  57 NE16      29.95F HX  82
DE KALB*       SUNNY     80  62  53 NE16      29.96S HX  82
PERU*          MOSUNNY   82  69  65 NE15      29.92S HX  85
$$

ILZ005-006-012>014-019>023-272200-
NORTHEAST ILLINOIS

CITY           SKY/WX    TMP DP  RH WIND       PRES   REMARKS
CHICAGO-OHARE  MOSUNNY   80  60  50 NE21G26   29.94S HX  81
CHICAGO-MIDWAY MOSUNNY   81  69  67 N15       29.93S HX  84
AURORA         MOSUNNY   82  64  54 N16       29.94S HX  83
LANSING*       CLOUDY    73  67  81 N10G17    29.94S
JOLIET*        PTSUNNY   83  71  66 NE10G17   29.91F HX  88
WAUKEGAN       SUNNY     78  59  51 N16G23    29.95F
DUPAGE AIRPORT MOSUNNY   82  59  45 NE18      29.94S HX  82
KANKAKEE*      SUNNY     81  73  78 NE10      29.91F HX  85
WHEELING       SUNNY     79  62  56 N17       29.96F HX  80
MORRIS*        PTSUNNY   82  70  66 N5        29.90F HX  86
ROMEOVILLE*    MOSUNNY   82  67  60 NE16      29.92S HX  84
NORTHERLY ISL    N/A     74  65  73 NW16        N/A
$$

LMZ740>746-272200-
SOUTHERN LAKE MICHIGAN

STATION/POSITION SKY/WX   TEMP    WIND        PRES    VSBY  WAVE
                          AIR SEA DIR/SP/G                  HT/PER
                          (F)     (DEG/KT/KT) (MB)    (MI)  (FT/S)
SOUTHERN BUOY              70 71   10/ 16/ 19 1013.8          2/ 3
WILMETTE HARBOR            71 72  350/ 16/ 21   N/A           4/ 4
HARRISON CRIB              72     350/ 22/ 23   N/A
BURNHAM HARBOR             74                   N/A
CALUMET HARBOR             74     330/ 12/ 17 1013.6R
BURNS HARBOR               73     360/ 14/ 16 1013.9S
MICHIGAN CITY              74     350/ 17/ 19   N/A
MICHIGAN CITY 6N           73 75  360/ 16/ 19   N/A           5/ 4
ST. JOSEPH                 73 74   20/ 16/ 19 1012.7          3/ 4
$$

ILZ025>027-034>036-040-047-049-050-058-095>099-272200-
WEST-CENTRAL ILLINOIS

CITY           SKY/WX    TMP DP  RH WIND       PRES   REMARKS
QUINCY         CLOUDY    84  72  67 N15       29.92S HX  89
GALESBURG*     PTSUNNY   82  72  70 N10       29.94S HX  87
MACOMB*        MOSUNNY   82  73  73 N9        29.94F HX  88
JACKSONVILLE*  CLOUDY   N/A N/A N/A MISG      29.89F
PITTSFIELD*    CLOUDY    80  76  86 NW6       29.92S HX  86
$$

ILZ028>032-037-038-041>044-048-051>054-059>061-272200-
CENTRAL ILLINOIS

CITY           SKY/WX    TMP DP  RH WIND       PRES   REMARKS
PONTIAC        MOSUNNY   81  77  88 NE6       29.91F HX  88
BLOOMINGTON    PTSUNNY   83  72  69 NE13      29.91F HX  88
DECATUR        LGT RAIN  77  74  90 CALM      29.89S
PEORIA         PTSUNNY   84  73  69 N8        29.90F HX  90
LACON*         PTSUNNY   81  74  79 N3        29.90F HX  85
LINCOLN*       PTSUNNY   85  76  74 N7        29.89S HX  94
SPRINGFIELD    CLOUDY    82  78  88 W3        29.89F HX  91
TAYLORVILLE    CLOUDY    80  76  87 SW7       29.89F HX  85
$$

ILZ033-039-045-046-055>057-062-063-272200-
EAST-CENTRAL ILLINOIS

CITY           SKY/WX    TMP DP  RH WIND       PRES   REMARKS
CHAMPAIGN      LGT RAIN  79  75  87 S3        29.89S HX  83
RANTOUL*       PTSUNNY   85  74  70 N8        29.88F HX  92
MATTOON        CLOUDY    78  75  90 W3        29.88F HX  81
PARIS*         CLOUDY    79  75  87 W8        29.90F HX  82
$$

ILZ079-100>102-272200-
SOUTHWEST ILLINOIS

CITY           SKY/WX    TMP DP  RH WIND       PRES   REMARKS
ALTON          PTSUNNY   84  75  74 SW9       29.89F HX  92
BELLEVILLE     PTSUNNY   84  75  73 SW8       29.90F HX  92
CAHOKIA*       CLOUDY    85  72  65 SW7       29.88F HX  91
SPARTA*        CLOUDY    84  74  71 W6        29.91F HX  90
$$

ILZ064>066-069>071-074>076-080>082-084>086-088>090-092>094-272200-
SOUTH-CENTRAL ILLINOIS

CITY           SKY/WX    TMP DP  RH WIND       PRES   REMARKS
CARBONDALE     CLOUDY    81  77  88 N3        29.90F HX  88
CAIRO*         PTSUNNY   75  74  95 CALM      29.91F
EFFINGHAM*     CLOUDY    83  75  76 SW10      29.90F HX  91
MARION         PTSUNNY   79  79 100 SW6       29.91F HX  83
MT. VERNON     CLOUDY    84  75  74 W10       29.89F HX  92
CENTRALIA*     CLOUDY    84  76  78 SW8       29.90F HX  93
SALEM*         CLOUDY    83  75  75 W9        29.90F HX  91
METROPOLIS*    CLOUDY    81  74  78 NW13      29.92S HX  86
$$

ILZ067-068-072-073-078-083-087-091-272200-
SOUTHEAST ILLINOIS

CITY           SKY/WX    TMP DP  RH WIND       PRES   REMARKS
LAWRENCEVILLE  MOSUNNY   84  74  71 SW9       29.88F HX  91
FLORA*         CLOUDY    83  77  80 W7        29.89F HX  92
FAIRFIELD*     CLOUDY    84  76  76 SW5       29.88F HX  92
HARRISBURG*    CLOUDY    81  76  85 S7        29.91F HX  86
ROBINSON*      PTSUNNY   83  74  74 W12       29.89F HX  89
CARMI*         MOSUNNY   83  75  77 W3        29.89F HX  90
$$

ABBREVIATIONS USED IN REMARKS
   TC - TEMPERATURE IN CELSIUS
  WCI - WIND CHILL INDEX
   HX - HEAT INDEX
  VSB - VISIBILITY
$$





USA.gov is the U.S. government's official web portal to all federal, state and local government web resources and services.